DW7816 Weather Reports


Display with metric or nautical units.
time (UTC)temp
F
wind
direction
speed
MPH
gust
MPH
rain 1hr
in
rain 24hr
in
rain mn
in
humidity
%
barometer
mb
20260831151016 85 230 0.0 6.0 0.00 0.00 0.00 70 1017.3
20260831150027 85 294 1.0 6.0 0.00 0.00 0.00 67 1017.3
20260831145052 84 200 0.0 5.0 0.00 0.00 0.00 69 1017.2
20260831144036 83 315 0.0 1.0 0.00 0.00 0.00 71 1017.3
20260831143057 82 183 1.0 4.0 0.00 0.00 0.00 73 1017.3
20260831142116 82 267 0.0 6.0 0.00 0.00 0.00 70 1017.3
20260831141056 81 252 0.0 3.0 0.00 0.00 0.00 72 1017.3
20260831140034 80 177 0.0 0.0 0.00 0.00 0.00 75 1017.3
20260831135022 79 138 0.0 0.0 0.00 0.00 0.00 76 1017.2
20260831134003 78 181 0.0 2.0 0.00 0.00 0.00 76 1017.1
20260831132951 76 243 0.0 2.0 0.00 0.00 0.00 78 1017.1
20260831130907 74 186 0.0 3.0 0.00 0.00 0.00 82 1017.0
20260831125904 72 192 0.0 2.0 0.00 0.00 0.00 85 1016.9
20260831124858 70 207 0.0 0.0 0.00 0.00 0.00 88 1016.8
20260831123844 68 207 0.0 1.0 0.00 0.00 0.00 89 1016.7
20260831122827 67 207 0.0 0.0 0.00 0.00 0.00 92 1016.5
20260831121846 66 207 0.0 0.0 0.00 0.00 0.00 92 1016.4
20260831115627 66 180 0.0 0.0 0.00 0.00 0.00 92 1016.1
20260831114645 66 180 0.0 0.0 0.00 0.00 0.00 92 1015.9
20260831113650 65 180 0.0 0.0 0.00 0.00 0.00 92 1015.7
20260831112625 65 180 0.0 0.0 0.00 0.00 0.00 92 1015.7
20260831111623 65 180 0.0 0.0 0.00 0.00 0.00 92 1015.6
20260831110620 65 180 0.0 0.0 0.00 0.00 0.00 92 1015.6
20260831105608 65 180 0.0 0.0 0.00 0.00 0.00 92 1015.4
20260831104624 65 180 0.0 0.0 0.00 0.00 0.00 92 1015.4
20260831103604 65 180 0.0 0.0 0.00 0.00 0.00 92 1015.5
20260831102552 66 180 0.0 0.0 0.00 0.00 0.00 92 1015.5
20260831101549 66 180 0.0 0.0 0.00 0.00 0.00 92 1015.4
20260831100601 66 180 0.0 0.0 0.00 0.00 0.00 91 1015.5
20260831095612 66 180 0.0 0.0 0.00 0.00 0.00 91 1015.5
20260831094543 66 180 0.0 0.0 0.00 0.00 0.00 91 1015.4
20260831092504 66 180 0.0 0.0 0.00 0.00 0.00 91 1015.3
20260831091459 66 180 0.0 0.0 0.00 0.00 0.00 91 1015.3
20260831090440 66 180 0.0 0.0 0.00 0.00 0.00 90 1015.3
20260831085452 67 180 0.0 0.0 0.00 0.00 0.00 90 1015.3
20260831083251 67 180 0.0 0.0 0.00 0.00 0.00 90 1015.3
20260831082229 67 180 0.0 0.0 0.00 0.00 0.00 90 1015.3
20260831081227 67 180 0.0 0.0 0.00 0.00 0.00 90 1015.1
20260831080235 67 180 0.0 0.0 0.00 0.00 0.00 90 1014.9
20260831075244 67 180 0.0 0.0 0.00 0.00 0.00 90 1014.9
20260831073147 68 180 0.0 0.0 0.00 0.00 0.00 90 1015.0
20260831072142 68 180 0.0 0.0 0.00 0.00 0.00 90 1015.0
20260831071140 68 180 0.0 0.0 0.00 0.00 0.00 89 1015.0
20260831070142 68 180 0.0 0.0 0.00 0.00 0.00 89 1015.2
20260831065141 68 180 0.0 0.0 0.00 0.00 0.00 90 1015.3
20260831064148 68 180 0.0 0.0 0.00 0.00 0.00 89 1015.3
20260831063213 69 180 0.0 0.0 0.00 0.00 0.00 89 1015.3
20260831061048 69 180 0.0 0.0 0.00 0.00 0.00 88 1015.3
20260831060029 69 180 0.0 0.0 0.00 0.00 0.00 88 1015.3
20260831055000 69 180 0.0 0.0 0.00 0.00 0.00 88 1015.3
20260831054021 70 180 0.0 0.0 0.00 0.00 0.00 88 1015.3
20260831051758 71 180 0.0 0.0 0.00 0.00 0.00 86 1015.2
20260831050801 71 180 0.0 0.0 0.00 0.00 0.00 85 1015.0
20260831045750 72 180 0.0 0.0 0.00 0.00 0.00 84 1014.9
20260831044810 72 180 0.0 0.0 0.00 0.00 0.00 83 1014.9
20260831042633 73 180 0.0 1.0 0.00 0.00 0.00 82 1014.7
20260831040458 73 192 0.0 0.0 0.00 0.00 0.00 83 1014.4
20260831035434 73 192 0.0 0.0 0.00 0.00 0.00 82 1014.4
20260831034410 74 192 0.0 0.0 0.00 0.00 0.00 81 1014.4
20260831033337 75 192 0.0 0.0 0.00 0.00 0.00 79 1014.5
20260831032337 76 192 0.0 0.0 0.00 0.00 0.00 78 1014.4
20260831031312 77 192 0.0 0.0 0.00 0.00 0.00 76 1014.5
20260831030324 77 192 0.0 1.0 0.00 0.00 0.00 74 1014.4
20260831025342 78 199 0.0 1.0 0.00 0.00 0.00 73 1014.4
20260831024400 78 218 0.0 4.0 0.00 0.00 0.00 73 1014.5
20260831023408 78 209 0.0 4.0 0.00 0.00 0.00 72 1014.3
20260831022414 78 202 1.0 5.0 0.00 0.00 0.00 72 1014.2
20260831020214 76 186 0.0 3.0 0.00 0.00 0.00 76 1014.0
20260831015234 75 174 0.0 3.0 0.00 0.00 0.00 80 1013.8
20260831014202 75 184 0.0 0.0 0.00 0.00 0.00 81 1013.6
20260831013138 76 184 0.0 0.0 0.00 0.00 0.00 81 1013.4
20260831011052 77 184 0.0 0.0 0.00 0.00 0.00 80 1013.3
20260831010058 78 184 0.0 0.0 0.00 0.00 0.00 78 1013.1
20260831002856 81 184 0.0 0.0 0.00 0.00 0.00 78 1013.1
20260830235618 85 184 0.0 0.0 0.00 0.00 0.00 74 1013.2
20260830234636 87 184 0.0 0.0 0.00 0.00 0.00 67 1013.2
20260830233603 89 184 0.0 0.0 0.00 0.00 0.00 70 1013.2
20260830232556 90 184 0.0 0.0 0.00 0.00 0.00 64 1013.3
20260830231524 92 184 0.0 0.0 0.00 0.00 0.00 63 1013.2
20260830230452 92 234 0.0 0.0 0.00 0.00 0.00 56 1013.1
20260830225433 91 190 0.0 3.0 0.00 0.00 0.00 57 1013.1
20260830224438 90 181 0.0 2.0 0.00 0.00 0.00 62 1013.2
20260830222321 91 190 0.0 0.0 0.00 0.00 0.00 55 1013.3
20260830221342 91 192 0.0 0.0 0.00 0.00 0.00 50 1013.2
20260830220326 92 207 0.0 0.0 0.00 0.00 0.00 55 1013.2
20260830215253 93 283 0.0 2.0 0.00 0.00 0.00 54 1013.4
20260830214219 93 225 0.0 1.0 0.00 0.00 0.00 55 1013.5
20260830210950 94 186 1.0 8.0 0.00 0.00 0.00 47 1013.6
20260830210004 95 202 0.0 5.0 0.00 0.00 0.00 48 1013.7
20260830205011 95 141 1.0 7.0 0.00 0.00 0.00 45 1013.7
20260830203948 95 243 2.0 7.0 0.00 0.00 0.00 49 1013.8
20260830203008 96 180 0.0 4.0 0.00 0.00 0.00 46 1014.0
20260830202016 95 247 1.0 6.0 0.00 0.00 0.00 45 1014.0
20260830201008 95 141 1.0 6.0 0.00 0.00 0.00 48 1014.1
20260830195940 95 258 1.0 6.0 0.00 0.00 0.00 47 1014.1
20260830194939 95 273 1.0 7.0 0.00 0.00 0.00 52 1014.2
20260830193929 95 234 1.0 5.0 0.00 0.00 0.00 47 1014.4
20260830192858 94 217 1.0 7.0 0.00 0.00 0.00 53 1014.4
20260830191908 94 242 1.0 6.0 0.00 0.00 0.00 51 1014.5
20260830190840 94 272 1.0 6.0 0.00 0.00 0.00 51 1014.7
20260830185814 93 345 1.0 6.0 0.00 0.00 0.00 51 1014.8
20260830183705 92 231 1.0 5.0 0.00 0.00 0.00 55 1015.1
20260830182720 92 120 1.0 8.0 0.00 0.00 0.00 56 1015.2
20260830181731 91 202 2.0 8.0 0.00 0.00 0.00 57 1015.4
20260830180753 91 184 2.0 8.0 0.00 0.00 0.00 56 1015.5
20260830174646 89 254 2.0 6.0 0.00 0.00 0.00 57 1015.8
20260830173636 89 282 2.0 7.0 0.00 0.00 0.00 61 1015.9
20260830172632 88 197 1.0 7.0 0.00 0.00 0.00 59 1016.1
20260830171650 87 320 0.0 0.0 0.00 0.00 0.00 61 1016.2
20260830170637 88 227 1.0 7.0 0.00 0.00 0.00 60 1016.4
20260830164554 87 253 2.0 9.0 0.00 0.00 0.00 59 1016.6
20260830163602 87 192 1.0 9.0 0.00 0.00 0.00 60 1016.7
20260830162622 86 280 2.0 6.0 0.00 0.00 0.00 61 1016.7
20260830161639 86 337 0.0 4.0 0.00 0.00 0.00 64 1016.7
20260830160644 85 318 1.0 5.0 0.00 0.00 0.00 64 1016.8
20260830155640 84 209 1.0 8.0 0.00 0.00 0.00 64 1016.7
20260830154610 83 188 1.0 7.0 0.00 0.00 0.00 66 1016.6
20260830153547 82 323 1.0 3.0 0.00 0.00 0.00 68 1016.7
20260830152604 81 228 1.0 6.0 0.00 0.00 0.00 68 1016.6
20260830151625 81 171 0.0 4.0 0.00 0.00 0.00 67 1016.5